Location: Prague
(50.0830°N, 14.4670°E)
Time: 05:19:37
(UTC+02:00)

ZACube-1 - Visible Passes

Search period start: 29 March 2023 00:00
Search period end: 08 April 2023 00:00
Orbit: 577 x 654 km, 97.7° (Epoch: 28 March)

Date Brightness Start Highest point End Pass type
(mag) Time Alt. Az. Time Alt. Az. Time Alt. Az.
29 Mar ? 03:15:45 10° ENE 03:17:51 13° E 03:19:16 12° ESE visible
29 Mar ? 04:50:12 10° N 04:54:28 73° WNW 04:56:20 32° SSW visible
30 Mar ? 03:30:59 10° NE 03:34:02 19° E 03:35:31 16° ESE visible
30 Mar ? 05:06:16 10° N 05:10:24 50° WNW 05:12:37 24° SW visible
31 Mar ? 03:46:34 10° NE 03:50:09 26° E 03:51:48 20° SE visible
31 Mar ? 05:22:24 10° N 05:26:17 35° WNW 05:28:53 18° SW visible
01 Apr ? 04:02:16 10° NNE 04:06:13 37° E 04:08:03 25° SE visible
01 Apr ? 05:38:37 10° N 05:42:08 26° WNW 05:45:08 12° WSW visible
02 Apr ? 04:18:05 10° NNE 04:22:14 54° E 04:24:17 27° SSE visible
02 Apr ? 05:54:56 10° NNW 05:57:56 19° WNW 06:00:52 10° WSW visible
03 Apr ? 04:33:59 10° NNE 04:38:13 79° ESE 04:40:31 26° S visible
04 Apr ? 03:15:31 10° ENE 03:17:32 13° E 03:19:32 10° ESE visible
04 Apr ? 04:49:56 10° N 04:54:08 72° WNW 04:56:45 22° SSW visible
05 Apr ? 03:30:40 10° NE 03:33:39 19° E 03:35:52 13° SE visible
05 Apr ? 05:05:57 10° N 05:10:00 49° WNW 05:12:57 17° SW visible
06 Apr ? 03:46:10 10° NE 03:49:42 26° E 03:52:04 16° SE visible
06 Apr ? 05:22:01 10° N 05:25:50 35° WNW 05:29:09 13° SW visible
07 Apr ? 04:01:50 10° NNE 04:05:42 37° E 04:08:15 18° SSE visible
07 Apr ? 05:38:10 10° N 05:41:37 25° WNW 05:45:01 10° WSW visible
